User: anonymous   Login
Location: George Washington National Forest Helicopter Landing Site
(38.6463°N, 79.0851°W)
Time: 05:25:18
(UTC-04:00)
Language:

Explorer 11/Cluster Stage 4 - Orbit

View from above orbital plane
View from above orbital plane
View from above satellite
View from above satellite

Ground track
Ground track

The orbit data is extracted from the following two-line orbital elements,

1   107U 61013A   19231.92044863 +.00000301 +00000-0 +17709-4 0  9993
2   107 028.7903 089.8747 0547263 211.8827 144.7481 14.08817757923526
Epoch (UTC): 19 August 2019 22:05:26
Eccentricity: 0.0547263
inclination: 28.7903°
perigee height: 467 km
apogee height: 1260 km
right ascension of ascending node: 89.8747°
argument of perigee: 211.8827°
revolutions per day: 14.08817757
mean anomaly at epoch: 144.7481°
orbit number at epoch: 92352

The dashed part of the orbit path shows where the satellite is in the earth's shadow,  

DLR